Regional Weather Roundup
Issued by NWS

Home | Current Version | Previous Version | Graphics & Text | Print | Product List | Glossary On
Versions: 1 2 3 4 5 6 7 8 9 10 11 12 13 14 15 16 17 18 19 20 21 22 23 24 25 26 27 28 29 30 31 32 33 34 35 36 37 38 39 40 41 42 43 44 45 46 47 48 49 50
000
ASUS45 KTFX 101910
RWRMT
MONTANA REGIONAL WEATHER ROUNDUP
NATIONAL WEATHER SERVICE GREAT FALLS MT
1200 PM MST WED FEB 10 2016

NOTE: "FAIR" INDICATES FEW OR NO CLOUDS BELOW 12000 FEET WITH NO
SIGNIFICANT WEATHER AND/OR OBSTRUCTIONS TO VISIBILITY.

MTZ001>007-043-102000-
WEST OF THE DIVIDE

CITY           SKY/WX    TMP DP  RH WIND       PRES   REMARKS
MULLAN PASS    MOSUNNY   41  26  55 VRB3      30.25S
ANACONDA         N/A     45  27  49 N7        30.24S
DEER LODGE       N/A     34  28  80 CALM      30.27F
HAMILTON         N/A     39  28  65 CALM      30.27F
LIBBY            N/A     30  28  93 CALM      30.29F
$$

MTZ008-052>055-102000-
SOUTHWEST MONTANA

CITY           SKY/WX    TMP DP  RH WIND       PRES   REMARKS
ENNIS          SUNNY     46  27  46 S18       30.32S
THREE FORKS      N/A     35  35 100 CALM      30.20F
$$

MTZ009-010-012-014-046-048-049-054-102000-
EAST SLOPES AND CENTRAL MONTANA

CITY           SKY/WX    TMP DP  RH WIND       PRES   REMARKS
CHOTEAU          N/A     54  27  35 CALM      30.12S
CONRAD           N/A     51  31  46 N1        30.11F
$$

MTZ011-013-016-021-045-047-050-051-102000-
NORTH CENTRAL MONTANA

CITY           SKY/WX    TMP DP  RH WIND       PRES   REMARKS
N BAR RANCH      N/A     50  23  34 NW12      30.11R
CHINOOK          N/A     45  30  57 CALM      30.12R
$$

MTZ017>020-022>027-061-062-102000-
NORTHEAST MONTANA

CITY           SKY/WX    TMP DP  RH WIND       PRES   REMARKS
JORDAN           N/A     45  32  60 N10       30.05R
SIDNEY         CLOUDY    37  28  70 N14       30.04R WCI  29
PLENTYWOOD       N/A     32  28  86 NW9       30.05R WCI  24
POPLAR           N/A     36  30  80 N14G20    30.07R WCI  27
$$

MTZ028>42-056>058-102000-
SOUTHCENTRAL AND SOUTHEAST MONTANA

CITY           SKY/WX    TMP DP  RH WIND       PRES   REMARKS
FORSYTH          N/A     54  27  35 NW9       30.03F
LAUREL           N/A     62  21  20 W18       30.04F
ROUNDUP          N/A     58  20  23 CALM      29.98S
$$

REGIONAL REPORTS...DAKOTAS

CITY           SKY/WX    TMP DP  RH WIND       PRES   REMARKS
WILLISTON      CLOUDY    32  26  78 N10       30.04R WCI  24
MINOT          CLOUDY    18   8  65 N8        30.04R WCI   8
DICKINSON      CLOUDY    38  29  70 N17       29.93R WCI  28
BEACH          CLOUDY    41  32  70 N20G25    30.01S
CROSBY         CLOUDY    23  23 100 NW12      30.08R WCI  12
TIOGA          CLOUDY    25  25 100 N14       30.08R WCI  13
WATFORD CITY   CLOUDY    28  25  86 NW13      30.03R WCI  18
BISMARCK       CLOUDY    25  15  66 NE9       29.99R WCI  15
GRAND FORKS    CLOUDY     9  -1  64 E8        30.16F WCI  -3
FARGO          CLOUDY    13   3  64 CALM      30.12S
BUFFALO SD       N/A     53  28  38 NW20      29.89R
RAPID CITY     SUNNY     63  19  18 NW35G41   29.91R
$$

REGIONAL REPORTS...WYOMING/IDAHO/WASHINGTON

CITY           SKY/WX    TMP DP  RH WIND       PRES   REMARKS
GILLETTE       CLOUDY    55  22  27 NW23G32   30.04S
SHERIDAN       PTSUNNY   59  16  18 NW10      30.02F
BUFFALO WY     CLOUDY    56  22  26 N12       30.07F
CODY           CLOUDY    61  16  17 W15G25    30.12R
YELLOWSTONE LA   N/A     23  14  68 CALM      30.37S
SPOKANE        CLOUDY    34  33  96 NE6       30.26F WCI  29
$$

REGIONAL REPORTS...ALBERTA

CITY           SKY/WX    TMP DP  RH WIND       PRES   REMARKS
EDMONTON       CLOUDY    32  25  74 E12       30.13F WCI  23
CALGARY        PTSUNNY   37  28  70 SE6       30.07R
LETHBRIDGE     PTSUNNY   41  28  60 VRB3      30.08F
MEDICINE HAT   PTSUNNY   41  32  70 NE8       30.10F
WATERTON GATE    N/A     52  27  37 SW14G20     N/A
CARDSTON         N/A     50  28  43 S5          N/A
MILK RIVER       N/A     48  23  37 S2          N/A
$$

REGIONAL REPORTS...SASKATCHEWAN

CITY           SKY/WX    TMP DP  RH WIND       PRES   REMARKS
SWIFT CURRENT  CLOUDY    32  30  93 NW8       30.09R WCI  25
REGINA         CLOUDY    23  19  86 N16       30.07R WCI  10
SASKATOON      CLOUDY    19  16  86 NE10      30.20R WCI   8
CYPRESS HILLS    N/A     34  28  80 NW7         N/A  WCI  28
VAL MARIE        N/A     34  30  86 N9          N/A  WCI  26
ROCKGLEN         N/A     28  27  93 N15G21      N/A  WCI  17
ASSINIBOIA       N/A     32  27  80 E7          N/A  WCI  26
$$



USA.gov is the U.S. government's official web portal to all federal, state and local government web resources and services.